Wind_Speed
12 7 4 9 10 6 15 24 14 22 25 25 26 25 29 36 42 48 48 43 39 34 40 43 41 37 33 31 25 19 12 9 12 10 13 14 13 13 14 17 17 17 12 13 14 11 13 13 10
11 6 2 7 3 5 9 14 17 20 22 25 26 25 28 36 41 48 49 44 40 36 42 44 43 40 35 33 29 24 17 7 6 15 15 17 13 9 10 14 15 19 15 15 15 14 13 12 7
5 8 4 8 4 3 8 10 15 18 21 24 26 23 28 35 39 46 48 43 42 37 43 44 44 42 39 34 34 29 19 7 2 9 20 19 13 14 10 12 13 18 16 13 14 10 9 7 7
9 9 2 16 10 5 6 8 12 15 20 23 25 22 27 34 38 46 47 43 41 39 43 45 45 44 40 38 40 33 23 13 7 6 16 25 22 15 13 12 11 10 14 9 4 4 7 9 9
13 13 4 3 10 5 7 4 9 12 19 22 24 22 25 31 38 43 47 43 41 39 43 45 45 46 43 43 42 39 30 19 11 8 10 18 23 19 15 13 12 8 8 8 8 6 8 7 7
11 12 13 4 5 6 4 3 8 11 18 19 21 19 25 33 36 42 45 45 41 38 41 43 46 45 46 45 46 42 33 28 22 16 14 11 14 20 18 14 12 6 8 8 13 12 10 4 3
18 15 12 12 8 5 9 7 9 12 15 17 18 20 21 31 36 39 43 46 39 38 39 42 45 43 47 47 48 45 39 37 32 27 27 26 25 25 21 17 13 11 20 19 16 8 1 1 3
21 20 19 16 14 15 12 12 12 15 17 15 16 17 23 27 35 39 41 44 37 37 37 40 43 43 46 49 48 48 47 43 42 40 34 34 32 27 23 19 18 25 21 20 14 7 8 8 10
26 21 16 25 19 17 15 11 12 15 15 15 17 17 22 23 32 36 39 43 37 36 35 38 39 42 42 46 49 47 50 48 50 44 39 41 33 29 28 27 24 20 21 16 10 12 8 7 2
29 28 21 28 23 20 16 20 16 20 20 23 19 16 21 23 26 33 38 40 37 34 34 34 36 40 40 43 45 45 47 53 41 39 38 41 36 34 33 31 27 19 18 12 8 6 5 5 7
34 34 30 27 24 23 25 18 16 23 18 21 20 14 21 24 23 31 34 37 36 32 31 31 33 36 37 37 40 42 46 48 53 47 45 43 38 34 32 35 32 13 23 30 14 11 5 6 10
43 41 39 36 27 24 25 25 24 25 20 19 18 16 22 24 22 27 30 33 34 30 30 28 29 33 35 33 35 39 41 35 32 38 40 43 35 37 26 30 25 7 7 10 31 31 27 23 25
46 47 43 40 32 29 25 37 30 23 8 21 26 24 23 26 20 23 29 30 32 29 29 26 25 29 31 29 30 33 37 44 42 33 35 36 41 39 34 29 41 34 32 29 25 22 36 36 40
48 46 43 40 37 31 6 23 27 26 22 27 28 22 23 26 23 22 28 27 28 29 26 25 22 23 27 25 28 28 33 35 37 36 34 35 38 40 38 37 40 38 40 38 39 34 41 46 48
47 48 46 42 39 35 40 44 33 30 30 31 32 27 23 23 24 21 25 25 25 29 25 24 21 19 22 22 26 27 31 35 36 34 31 30 35 32 32 34 30 31 32 31 28 32 30 33 30
47 47 47 41 39 37 38 35 34 33 38 35 37 31 25 27 26 21 23 22 24 26 28 22 19 17 18 18 22 25 28 31 34 34 32 31 30 28 23 28 29 26 23 23 22 21 21 23 20
46 45 45 43 38 32 32 37 37 35 39 43 38 37 25 28 28 23 24 23 22 23 26 21 18 14 15 15 18 22 23 26 29 31 30 28 26 27 24 20 20 18 17 14 14 12 13 17 16
41 42 41 42 37 31 39 45 36 33 33 30 36 39 34 35 30 26 24 21 20 22 22 21 18 13 10 10 11 17 20 21 25 27 29 30 29 26 23 22 15 14 14 14 12 12 13 10 9
27 36 40 39 44 37 44 37 52 41 31 26 37 33 31 36 32 33 26 23 20 21 21 22 18 12 5 7 4 9 16 16 20 24 26 30 31 31 29 29 30 28 26 22 17 16 18 21 22
30 33 40 44 50 44 39 38 38 35 38 32 36 32 35 34 37 39 32 25 21 21 22 21 21 11 3 3 4 5 9 13 14 19 22 26 28 30 31 32 32 32 31 31 30 30 26 24 23
36 34 35 48 57 59 51 41 33 47 36 50 48 35 40 39 43 40 33 32 25 24 23 24 23 13 3 3 5 6 5 7 10 14 18 21 25 28 28 29 29 32 31 29 32 33 38 36 34
41 40 37 45 56 65 54 59 58 54 50 41 47 53 54 44 44 44 41 36 31 28 27 26 23 15 7 6 7 9 7 5 7 9 13 17 20 23 25 27 28 31 32 31 31 35 37 38 39
48 46 43 41 46 65 66 57 55 58 66 65 61 55 53 50 44 44 44 41 36 30 30 26 27 18 11 9 11 12 11 9 4 6 9 12 15 18 21 23 25 27 29 31 32 34 35 34 35
56 52 47 41 41 41 53 66 62 63 57 60 66 62 56 47 47 50 49 45 40 35 31 29 30 22 20 15 13 14 13 13 7 4 5 7 10 13 16 19 21 23 27 29 30 32 32 32 32
61 58 53 47 45 41 42 49 55 64 70 69 69 57 55 48 53 53 47 47 42 36 36 33 32 27 21 20 17 17 15 15 11 7 5 4 4 7 12 15 17 19 23 25 28 30 31 31 31
66 64 59 53 50 48 49 46 44 46 52 63 64 65 61 55 60 59 57 51 45 38 39 36 34 30 22 24 21 20 19 18 15 12 9 6 2 1 5 9 13 16 19 22 25 27 29 28 30
70 68 63 60 57 56 51 48 50 43 42 45 55 65 67 46 69 69 66 59 54 46 42 39 34 29 26 25 24 24 24 22 19 16 14 10 6 3 2 5 9 12 15 19 21 23 26 27 28
79 73 70 66 63 57 53 52 52 48 45 44 48 61 66 72 67 69 68 62 55 51 48 44 36 33 29 31 28 28 27 26 23 21 18 13 11 7 4 4 6 9 12 15 17 20 23 25 27
78 75 73 72 67 62 59 56 54 55 52 48 48 47 56 62 63 67 67 63 57 56 50 44 40 35 34 35 34 30 31 31 29 25 22 17 14 11 8 7 7 7 10 13 16 18 20 22 24
81 79 79 75 69 65 62 58 65 60 59 55 49 46 44 57 63 64 64 61 58 50 43 41 39 36 36 36 39 33 34 35 33 29 25 22 18 15 13 11 9 8 9 11 14 17 19 22 24
Wind_Direction
136 131 96 42 32 22 30 51 55 43 39 31 26 13 4 7 11 15 14 12 15 14 17 16 14 11 11 11 6 359 349 288 241 217 205 188 186 188 195 194 199 201 188 211 198 196 188 189 193
144 169 114 36 7 2 18 20 35 27 24 23 22 13 5 7 13 14 14 12 14 13 19 19 13 14 17 16 15 4 356 353 246 211 192 182 174 187 184 191 193 190 192 203 197 208 210 187 194
127 170 75 60 178 355 329 338 352 359 8 15 15 8 360 4 11 11 12 13 13 13 20 21 15 17 19 22 20 15 12 27 60 191 185 175 202 191 190 177 178 197 201 198 207 198 206 206 227
204 139 41 162 246 311 327 336 354 12 7 8 5 6 357 359 7 7 14 14 13 16 21 23 20 20 20 25 25 21 24 34 73 143 193 195 194 186 182 188 169 167 184 174 187 227 240 222 193
232 225 247 295 236 271 297 310 7 6 3 7 6 9 5 1 4 6 11 13 15 17 24 25 25 22 21 24 27 29 29 41 64 111 155 199 208 197 176 166 153 125 180 179 164 117 103 126 154
233 261 276 210 286 294 238 305 345 358 5 5 6 3 0 4 7 4 11 13 15 18 25 25 27 24 25 27 29 32 39 52 65 96 105 125 153 169 166 165 150 133 133 134 117 108 106 83 122
242 244 272 270 292 312 253 278 312 337 353 356 358 358 1 3 6 2 7 13 14 18 24 26 28 29 30 31 31 38 45 55 69 81 86 94 108 132 153 159 144 138 121 117 126 96 15 95 220
248 263 275 266 262 278 298 260 284 327 327 338 345 353 344 357 4 1 7 13 14 19 24 30 29 34 34 35 37 43 48 56 66 72 84 93 107 123 139 147 133 135 130 140 150 148 166 227 251
248 253 272 269 260 277 283 279 274 326 325 326 339 337 332 350 1 357 4 11 15 20 22 34 31 36 37 39 42 47 56 63 68 70 84 93 100 107 113 110 113 126 139 152 155 191 308 26 28
244 247 238 249 256 264 261 282 290 298 311 316 318 327 324 343 354 355 358 7 14 19 23 34 35 36 42 43 45 52 59 64 71 48 78 90 93 96 97 97 98 105 112 116 100 80 73 73 75
248 254 256 255 263 253 260 255 265 289 302 308 312 312 320 328 343 348 351 360 12 16 23 33 38 38 44 47 49 54 59 71 82 81 76 82 89 84 86 91 55 11 89 57 72 70 62 57 74
248 251 256 259 257 252 258 267 262 278 293 300 296 302 313 316 330 340 342 355 11 15 21 28 39 41 45 51 54 57 59 65 63 73 62 77 86 104 67 86 111 49 109 54 83 79 80 80 80
243 248 253 255 255 261 280 278 263 262 285 261 285 285 302 309 316 331 340 346 8 12 21 23 38 45 46 51 56 61 61 64 75 69 82 85 84 93 89 85 98 147 99 102 98 81 93 88 90
240 242 242 247 248 251 219 234 262 266 257 263 270 282 281 296 301 313 332 336 4 8 16 20 28 44 45 52 57 62 66 66 70 77 80 89 84 90 94 96 103 95 89 83 83 91 93 93 95
235 235 238 241 243 238 241 250 256 254 262 272 262 267 267 281 290 301 322 328 349 1 9 16 18 40 39 57 62 64 65 74 76 72 75 81 86 103 91 90 95 93 83 87 72 93 93 84 82
234 234 236 236 241 238 245 250 247 258 265 260 260 263 258 273 278 289 308 317 331 351 3 6 13 28 39 56 70 70 69 67 69 72 72 73 75 78 92 86 95 91 84 79 68 76 65 62 55
236 234 229 228 232 235 250 246 245 261 261 254 250 253 244 271 271 280 296 303 323 338 351 3 5 18 48 49 84 81 73 72 72 71 72 73 72 71 78 98 97 84 92 70 55 44 39 21 23
234 233 227 225 225 219 238 243 237 241 251 256 249 245 254 258 264 273 287 298 312 321 343 350 355 3 54 60 78 87 82 78 76 74 72 72 74 78 84 89 89 81 72 72 59 48 41 38 22
230 227 220 208 206 215 225 248 240 230 244 251 241 235 245 252 256 267 276 290 296 312 328 339 344 345 22 84 85 92 95 76 75 76 73 76 77 77 77 80 78 77 71 65 66 61 62 63 68
228 221 211 205 203 197 190 228 215 209 224 234 220 223 229 244 255 263 266 282 286 299 311 327 329 320 335 100 153 136 108 91 80 75 75 73 73 74 75 75 74 74 73 70 70 65 57 59 59
227 225 211 206 203 200 200 206 209 218 220 233 234 229 232 244 254 259 267 269 279 286 299 310 322 301 280 196 172 199 163 114 94 78 72 70 72 73 72 72 70 68 66 65 63 65 66 68 65
229 228 220 213 213 209 213 214 231 220 210 222 237 242 246 249 251 256 260 263 270 273 287 298 311 294 275 214 191 208 207 165 117 92 79 78 73 72 71 69 69 65 61 56 54 54 55 55 57
228 228 227 223 214 218 218 219 219 222 232 235 240 243 245 248 250 255 258 263 263 271 278 287 301 295 251 270 202 208 226 213 167 111 89 84 78 73 71 64 63 60 58 54 51 46 45 47 49
229 229 229 228 229 226 226 229 227 229 233 235 240 241 243 249 249 252 252 257 260 266 271 276 291 292 260 267 226 208 221 232 217 158 111 89 79 72 68 63 57 55 54 51 46 46 41 39 37
231 229 230 228 230 231 228 227 231 233 236 235 237 235 241 237 232 238 250 253 256 261 267 273 283 287 269 257 245 213 213 226 231 204 176 139 82 75 66 61 55 50 50 48 44 41 41 34 29
232 231 228 228 229 230 231 235 238 232 234 232 230 228 234 237 235 238 251 255 255 256 262 270 277 278 260 244 245 224 209 218 225 226 213 208 201 68 60 59 54 47 43 42 41 39 36 34 29
232 231 229 227 228 229 231 233 241 243 242 240 232 233 230 226 238 241 248 251 253 256 259 264 268 264 246 245 239 228 220 215 225 231 233 236 228 228 344 25 47 43 37 33 33 33 32 28 26
231 230 229 229 229 229 230 233 238 242 241 242 237 233 233 231 237 242 245 246 250 253 257 260 265 258 238 239 240 230 229 222 220 232 238 243 249 256 284 325 5 27 26 22 25 24 23 23 21
232 233 232 231 228 229 228 231 236 240 236 240 242 243 242 236 238 239 242 244 246 251 254 256 261 248 234 234 238 234 229 231 227 226 234 239 249 262 275 295 325 352 3 3 7 13 13 11 13
229 229 230 231 230 232 231 228 233 235 236 240 241 246 245 237 237 239 240 242 246 247 248 252 251 238 235 235 236 237 234 230 233 233 234 239 244 255 267 277 291 309 330 340 348 352 356 358 360
Height
11026 11027 11028 11028 11030 11030 11030 11028 11027 11026 11024 11022 11020 11017 11013 11009 11004 10999 10992 10985 10978 10973 10967 10959 10951 10943 10937 10930 10923 10917 10913 10910 10910 10911 10912 10915 10917 10919 10921 10925 10928 10929 10933 10936 10939 10941 10943 10946 10949
11028 11029 11030 11030 11031 11030 11031 11030 11028 11028 11026 11024 11021 11018 11015 11010 11006 11001 10995 10988 10981 10975 10968 10960 10952 10945 10938 10931 10923 10915 10909 10906 10905 10905 10910 10913 10916 10918 10921 10924 10927 10929 10933 10936 10939 10942 10944 10947 10951
11030 11031 11033 11032 11029 11032 11031 11031 11030 11029 11028 11026 11023 11020 11017 11013 11008 11005 10998 10991 10984 10978 10970 10963 10955 10947 10940 10932 10924 10915 10907 10904 10902 10904 10908 10913 10916 10918 10921 10924 10927 10931 10935 10937 10940 10943 10945 10948 10951
11031 11033 11028 11031 11033 11033 11032 11032 11031 11030 11029 11027 11025 11022 11019 11015 11011 11007 11001 10994 10988 10981 10974 10966 10958 10949 10942 10935 10926 10916 10908 10904 10902 10903 10905 10910 10912 10918 10922 10925 10930 10934 10937 10941 10944 10944 10946 10948 10952
11031 11032 11030 11031 11033 11034 11033 11032 11031 11031 11030 11029 11027 11024 11021 11018 11014 11009 11005 10998 10991 10984 10978 10970 10962 10954 10946 10937 10927 10919 10911 10905 10903 10903 10905 10908 10912 10919 10925 10930 10936 10940 10943 10946 10948 10948 10948 10950 10953
11030 11032 11032 11033 11034 11034 11033 11032 11032 11031 11031 11030 11028 11025 11024 11020 11016 11012 11007 11001 10994 10988 10983 10976 10966 10959 10951 10942 10932 10925 10916 10910 10906 10905 10907 10909 10914 10921 10930 10936 10940 10943 10945 10947 10949 10950 10951 10951 10954
11029 11024 11028 11032 11034 11034 11033 11033 11032 11031 11031 11031 11030 11027 11025 11023 11019 11015 11010 11004 10998 10992 10987 10981 10973 10966 10958 10949 10940 10932 10924 10918 10914 10914 10914 10916 10920 10926 10933 10935 10939 10942 10945 10948 10950 10950 10951 10952 10954
11024 11026 11028 11032 11034 11033 11033 11033 11032 11032 11032 11031 11031 11028 11025 11024 11021 11018 11014 11008 11003 10996 10991 10987 10980 10972 10966 10957 10949 10941 10934 10928 10924 10924 10924 10924 10925 10926 10928 10930 10934 10938 10941 10943 10948 10949 10950 10950 10951
11021 11025 11032 11031 11031 11032 11032 11032 11033 11032 11032 11032 11031 11029 11026 11025 11024 11020 11016 11011 11006 11000 10996 10992 10986 10980 10974 10966 10958 10952 10947 10938 10929 10932 10933 10930 10929 10929 10930 10937 10941 10942 10941 10942 10943 10946 10948 10947 10945
11017 11021 11030 11028 11029 11031 11031 11032 11032 11032 11032 11031 11031 11030 11027 11027 11026 11022 11019 11014 11010 11005 11000 10997 10993 10988 10982 10975 10968 10963 10957 10948 10938 10941 10946 10939 10940 10942 10946 10946 10948 10950 10948 10949 10948 10949 10949 10949 10947
11015 11017 11021 11025 11027 11028 11029 11032 11031 11030 11032 11030 11031 11030 11028 11027 11027 11025 11022 11018 11014 11009 11004 11002 10998 10994 10990 10982 10977 10971 10971 10969 10963 10960 10956 10953 10948 10954 10956 10956 10959 10962 10959 10956 10953 10952 10951 10952 10948
11008 11012 11015 11018 11023 11027 11028 11029 11030 11030 11031 11030 11030 11030 11029 11027 11028 11027 11024 11021 11017 11013 11009 11006 11003 11001 10997 10991 10985 10982 10982 10977 10970 10967 10969 10961 10960 10988 10966 10968 10961 10988 10967 10963 10958 10958 10957 10954 10952
11000 11003 11010 11013 11019 11023 11026 11020 11024 11028 11031 11029 11028 11031 11030 11027 11028 11028 11026 11023 11020 11017 11013 11010 11008 11007 11004 10999 10993 10990 10989 10984 10978 10975 10975 10973 10970 10968 10969 10967 10973 10986 10971 10966 10961 10965 10962 10958 10957
10993 10998 10999 11006 11011 11020 11021 11012 11020 11023 11026 11026 11026 11029 11029 11027 11027 11028 11028 11025 11022 11020 11016 11014 11012 11011 11010 11005 10999 10996 10997 10991 10987 10986 10985 10985 10977 10971 10976 10977 10974 10974 10967 10972 10974 10973 10970 10965 10964
10988 10988 10992 10998 11003 11012 11016 11017 11015 11020 11022 11021 11022 11025 11027 11026 11026 11027 11028 11026 11024 11022 11019 11018 11016 11014 11015 11011 11005 11002 10999 10999 10998 10995 10993 10990 10988 10990 10986 10982 10978 10974 10975 10977 10980 10979 10976 10974 10973
10977 10982 10986 10990 10999 11002 11006 11008 11012 11015 11017 11017 11018 11022 11025 11024 11025 11026 11026 11026 11025 11024 11021 11020 11018 11016 11017 11016 11012 11007 11004 11001 10999 10999 10999 10996 10994 10995 10992 10985 10980 10979 10980 10984 10984 10982 10979 10977 10973
10967 10972 10977 10983 10991 10998 10999 11002 11004 11008 11009 11009 11012 11017 11020 11021 11023 11025 11025 11025 11025 11025 11023 11021 11020 11018 11018 11018 11017 11014 11011 11007 11005 11004 11002 11001 11000 10997 10995 10992 10990 10990 10990 10987 10983 10981 10979 10976 10974
10956 10964 10972 10981 10984 10993 10996 10991 10994 11001 11001 11003 11006 11011 11015 11018 11020 11022 11025 11024 11026 11025 11024 11023 11022 11020 11019 11020 11020 11018 11017 11015 11012 11011 11009 11008 11007 11005 11003 11002 11001 10999 10996 10992 10989 10987 10984 10980 10978
10954 10955 10963 10973 10972 10980 10987 10986 10985 10993 10993 10997 11002 11008 11012 11015 11016 11019 11023 11023 11025 11025 11024 11024 11023 11022 11021 11021 11022 11021 11019 11019 11017 11015 11012 11011 11011 11010 11008 11006 11005 11004 11002 11000 10997 10993 10989 10985 10981
10945 10947 10954 10961 10967 10972 10972 10973 10977 10985 10987 10994 10998 11002 11006 11008 11011 11013 11019 11021 11022 11024 11023 11024 11024 11023 11022 11022 11023 11022 11021 11020 11020 11018 11015 11014 11013 11011 11010 11008 11007 11005 11003 11002 10999 10994 10989 10986 10983
10937 10941 10948 10949 10956 10960 10962 10965 10967 10978 10982 10986 10991 10997 11000 11003 11006 11010 11015 11018 11019 11021 11022 11022 11023 11023 11022 11022 11022 11024 11023 11022 11021 11020 11018 11016 11015 11014 11012 11011 11009 11006 11005 11003 11000 10996 10993 10989 10986
10929 10933 10940 10944 10948 10952 10956 10964 10966 10973 10973 10977 10983 10988 10994 10998 11001 11005 11009 11014 11016 11018 11019 11020 11021 11022 11021 11021 11022 11023 11023 11023 11021 11021 11020 11018 11016 11016 11014 11013 11011 11009 11006 11004 11001 10998 10995 10992 10989
10920 10924 10930 10936 10941 10941 10948 10954 10963 10968 10965 10970 10975 10981 10986 10992 10996 11000 11004 11009 11011 11014 11015 11017 11017 11020 11020 11020 11020 11022 11023 11023 11022 11021 11021 11020 11019 11018 11017 11015 11013 11012 11009 11006 11003 11000 10997 10994 10992
10906 10915 10922 10929 10934 10940 10945 10947 10952 10951 10962 10965 10970 10974 10979 10986 10989 10993 10997 11002 11005 11009 11012 11013 11014 11017 11018 11019 11018 11019 11022 11023 11022 11021 11020 11021 11020 11018 11017 11016 11015 11013 11011 11008 11005 11002 10999 10996 10993
10896 10904 10913 10921 10925 10933 10935 10935 10940 10949 10950 10953 10960 10967 10972 10977 10981 10983 10989 10994 10999 11003 11006 11008 11010 11012 11014 11017 11016 11016 11019 11021 11022 11021 11020 11021 11021 11020 11018 11016 11016 11015 11012 11009 11007 11004 11001 10997 10994
10881 10890 10902 10910 10916 10920 10921 10927 10930 10934 10939 10942 10950 10956 10962 10969 10973 10975 10980 10985 10991 10997 11000 11003 11005 11007 11010 11013 11013 11014 11015 11018 11021 11021 11020 11020 11021 11020 11019 11017 11016 11014 11012 11010 11007 11004 11001 10998 10995
10868 10875 10888 10896 10901 10905 10914 10918 10916 10924 10929 10931 10941 10943 10953 10943 10958 10967 10971 10978 10982 10989 10993 10996 10999 11001 11004 11008 11009 11010 11012 11014 11017 11019 11019 11019 11019 11019 11018 11016 11015 11013 11011 11009 11007 11004 11001 10998 10995
10844 10860 10870 10880 10888 10899 10905 10906 10909 10914 10919 10920 10925 10930 10935 10946 10953 10955 10962 10967 10972 10978 10984 10989 10992 10994 10998 11001 11004 11005 11008 11010 11012 11014 11016 11016 11017 11017 11016 11015 11013 11011 11010 11009 11007 11004 11001 10998 10994
10836 10849 10857 10863 10874 10885 10893 10897 10900 10901 10908 10912 10915 10919 10927 10937 10943 10946 10951 10957 10963 10969 10975 10981 10984 10987 10990 10992 10998 11000 11003 11006 11007 11009 11011 11013 11014 11014 11014 11012 11011 11010 11009 11008 11006 11003 11000 10998 10994
10817 10828 10836 10849 10865 10874 10882 10887 10882 10888 10894 10900 10906 10911 10917 10925 10931 10934 10939 10948 10951 10961 10966 10972 10976 10979 10982 10986 10991 10994 10997 11000 11002 11004 11006 11008 11009 11010 11011 11011 11009 11008 11007 11006 11003 11002 11000 10997 10994